Wind_Speed
27 28 29 29 29 29 30 30 30 28 28 26 25 23 23 23 22 21 19 18 17 16 17 17 16 16 17 17 17 18 17 16 16 16 15 15 14 14 14 14 14 13 13 13
28 28 29 29 29 29 30 30 30 28 28 26 25 25 25 23 22 22 22 21 18 16 16 15 16 16 16 16 17 17 16 16 16 16 15 14 14 13 13 14 14 13 13 14
29 28 29 29 29 30 30 30 30 29 28 27 27 26 27 26 24 23 23 22 19 18 16 16 15 15 15 16 16 16 16 16 15 15 14 14 13 13 14 14 14 14 14 15
28 28 30 29 29 28 28 29 31 30 29 29 28 28 28 28 25 23 22 21 20 18 18 18 16 15 15 16 16 16 16 15 14 13 13 13 13 14 15 14 14 15 15 15
28 28 28 28 29 29 28 28 30 30 30 30 29 28 28 27 26 24 22 21 19 18 18 18 17 17 17 16 16 16 16 15 15 14 14 14 14 15 14 15 15 15 15 15
27 27 27 27 28 28 28 29 29 29 29 29 28 28 26 25 24 23 23 22 20 18 17 16 17 18 17 17 16 16 16 16 15 15 15 15 15 15 15 16 17 16 16 16
26 26 26 25 25 26 27 28 28 27 27 27 27 27 26 25 24 24 24 24 22 21 19 19 18 18 17 17 17 17 17 17 17 17 16 16 16 15 16 16 17 18 18 18
25 25 25 24 23 24 25 25 27 26 26 26 26 27 27 26 25 25 25 25 23 21 20 19 19 19 18 18 18 18 18 18 18 17 17 17 17 17 17 18 18 18 18 18
25 25 24 23 23 23 24 25 26 26 26 25 26 27 25 25 24 23 24 24 23 21 20 20 19 19 19 20 19 19 19 18 18 18 18 19 19 19 19 19 19 18 18 19
24 24 24 23 24 24 23 23 24 26 25 25 25 26 25 24 23 22 23 23 23 22 21 21 21 20 20 20 20 20 20 20 19 18 18 18 19 20 20 20 20 20 20 20
23 24 23 23 23 24 22 22 23 24 24 25 25 25 26 25 24 24 24 23 23 23 22 22 21 21 21 21 21 21 21 21 21 20 19 19 19 20 20 20 21 22 22 22
22 22 23 23 22 23 22 21 21 21 22 22 23 24 25 26 25 24 24 23 23 23 22 22 21 21 21 21 22 21 21 22 21 20 20 20 21 21 20 20 21 22 23 22
22 22 22 22 22 21 21 21 21 21 22 21 22 23 23 24 24 24 24 23 21 21 21 21 21 21 21 21 21 22 22 22 21 21 22 21 22 22 22 22 22 22 22 22
19 19 20 21 20 19 20 20 21 21 20 21 21 22 23 23 24 24 24 23 22 21 21 21 22 21 21 22 22 21 21 22 22 22 23 24 24 24 24 24 23 22 22 22
17 18 18 19 19 19 19 18 18 19 19 20 21 21 22 24 24 23 23 23 22 22 22 22 21 21 22 22 22 22 22 22 22 23 25 26 26 25 25 25 24 23 23 23
16 17 17 17 18 18 18 18 17 18 18 19 20 20 21 22 23 23 23 22 22 22 22 21 21 21 21 22 22 21 21 22 22 23 24 25 25 25 25 25 25 24 24 24
16 16 16 16 17 18 18 17 17 17 18 20 20 20 20 21 22 22 21 21 22 22 21 21 21 21 21 21 21 21 22 22 23 23 24 25 25 25 26 26 25 25 25 25
15 15 15 15 15 16 17 17 17 17 17 18 19 20 21 21 20 21 20 20 21 22 22 22 22 22 22 22 22 22 22 22 23 24 24 24 24 25 25 25 25 26 26 26
13 14 15 15 16 16 16 16 16 17 17 17 18 19 20 21 21 21 21 20 20 20 21 21 21 21 22 22 22 22 22 22 23 23 23 22 22 22 23 24 25 25 25 25
12 13 14 15 15 15 15 16 16 17 17 17 18 18 18 18 18 19 19 19 20 20 20 21 21 22 22 22 22 22 21 21 21 21 21 21 22 22 22 23 23 23 24 24
12 12 14 15 14 14 15 15 16 16 16 16 17 17 17 17 18 18 20 21 21 22 22 22 23 23 22 22 22 20 20 21 21 21 21 21 21 21 22 22 22 23 23 24
13 13 13 14 15 15 15 16 16 16 16 16 17 17 17 18 18 19 20 21 22 22 23 23 23 23 22 22 22 21 21 21 21 22 22 22 21 21 21 22 22 23 23 23
13 13 14 14 15 15 15 15 15 16 17 17 18 18 19 19 19 19 19 20 21 21 22 22 23 23 23 22 22 22 22 22 22 21 21 21 21 22 22 22 22 22 23 23
13 14 14 14 15 15 16 15 15 16 17 18 18 18 18 18 18 18 18 19 19 20 21 21 22 22 23 23 22 22 21 22 22 22 22 22 22 22 22 22 22 22 22 23
13 13 14 14 14 15 16 16 16 16 16 16 16 16 17 17 17 17 17 17 18 18 19 19 20 21 21 21 22 22 22 22 22 22 21 21 22 22 22 22 23 22 23 23
13 14 14 14 14 15 15 15 15 15 15 16 16 16 16 16 16 16 16 16 17 17 18 19 20 20 20 21 21 22 22 22 22 22 22 22 23 23 23 23 23 24 24 25
13 13 14 14 14 14 15 15 15 15 15 15 15 15 15 15 15 16 17 17 17 18 18 19 19 20 20 20 21 21 21 21 21 22 23 23 24 24 24 24 24 25 25 25
Wind_Direction
236 233 232 233 232 232 235 238 242 243 241 241 243 248 252 253 258 265 267 270 275 275 273 274 271 274 278 281 282 284 286 285 284 282 280 276 274 271 266 270 273 275 275 277
236 234 233 234 234 235 236 239 242 241 238 238 243 248 251 255 260 264 265 269 272 272 270 271 271 274 277 280 283 284 284 283 284 282 280 274 273 272 266 268 270 273 275 277
237 235 234 235 237 238 239 239 240 239 238 240 243 247 252 256 260 264 267 269 269 271 270 266 267 272 277 279 282 285 285 284 284 282 280 272 267 268 270 270 271 272 274 277
238 237 235 236 238 241 242 241 240 239 238 241 243 245 249 254 258 261 264 269 268 266 268 266 265 272 277 278 279 282 283 284 283 281 279 273 271 271 271 272 274 275 276 278
239 238 238 237 239 242 243 242 238 240 240 241 242 244 247 251 256 259 262 265 264 263 266 264 264 271 276 276 277 279 277 278 279 277 275 272 270 271 270 273 276 278 277 278
237 239 239 237 237 240 243 242 240 240 241 242 244 246 248 251 254 256 259 261 262 261 262 266 270 274 274 275 276 278 277 275 276 275 273 271 272 271 273 275 277 279 278 276
236 238 239 236 236 238 241 241 241 241 241 241 245 246 248 250 253 256 259 258 261 261 261 266 271 272 273 273 275 274 274 274 275 273 270 269 270 271 274 277 279 280 280 278
233 236 237 237 237 237 239 239 239 240 240 242 245 245 247 250 251 255 257 256 261 263 262 266 269 270 270 270 271 271 271 273 273 271 269 268 268 271 272 274 279 280 280 279
233 238 240 241 239 238 238 240 240 240 240 242 245 244 244 248 252 252 253 257 260 266 268 268 268 268 270 270 269 269 270 270 271 270 268 267 268 271 273 275 277 279 280 280
234 238 241 242 241 241 241 241 242 242 242 243 244 241 245 250 252 253 254 257 259 263 267 267 267 267 268 267 267 268 268 268 267 268 268 269 269 271 273 274 275 277 279 280
238 240 242 245 245 243 244 242 244 243 242 242 244 245 248 249 250 252 255 257 259 260 263 265 267 265 265 264 264 265 267 267 268 266 265 268 271 272 272 273 275 278 280 281
239 241 243 245 245 244 243 240 241 242 240 242 243 246 246 246 247 250 254 256 258 259 259 261 263 265 265 266 264 263 265 266 266 265 266 267 268 270 272 274 277 280 280 279
239 241 243 245 247 248 244 241 241 244 245 245 243 245 246 247 247 250 253 254 257 258 257 258 261 264 266 267 267 266 266 266 264 265 267 267 268 269 271 274 276 277 277 277
239 242 243 242 244 246 243 243 247 248 248 247 246 246 247 250 251 251 253 254 256 256 256 262 264 265 266 267 267 267 265 266 266 267 268 269 268 268 269 272 274 274 274 275
243 243 243 240 243 244 246 246 244 245 248 246 246 249 251 252 253 253 253 255 256 257 260 262 264 265 266 266 264 264 266 267 267 268 270 270 270 268 269 270 271 272 273 274
245 245 243 243 242 243 246 245 244 246 248 246 247 249 251 250 251 253 255 256 257 261 263 263 265 265 266 268 266 266 267 269 269 270 270 270 269 268 268 268 269 270 272 274
243 241 242 242 242 243 244 245 247 251 251 249 247 247 250 249 249 253 256 258 257 260 264 264 266 268 269 269 266 267 268 270 270 271 271 269 268 268 269 269 270 271 271 273
242 240 242 245 244 242 243 246 248 252 253 252 252 253 253 254 255 256 258 257 257 259 261 264 267 269 271 270 268 268 269 270 270 271 270 270 269 270 271 271 270 272 274 274
245 244 245 245 244 243 246 249 249 249 251 253 254 256 256 257 258 259 260 256 256 259 262 265 267 270 272 272 273 271 270 270 271 271 270 270 272 273 273 271 271 272 273 275
248 246 243 244 245 246 247 248 248 250 252 254 257 254 254 257 260 261 259 259 259 262 265 267 269 270 272 273 274 274 271 269 270 271 270 271 272 273 274 273 273 273 273 273
247 247 245 246 248 248 249 249 249 250 253 255 256 257 258 260 264 263 261 262 263 263 263 265 268 271 272 273 273 272 272 272 270 271 271 272 274 273 273 274 274 274 275 276
248 248 246 247 249 250 250 250 250 252 256 258 260 261 262 263 263 263 262 263 265 265 266 267 269 270 270 270 270 270 272 272 272 273 273 273 273 274 275 276 276 277 278 278
248 248 248 248 248 250 252 255 255 256 258 259 260 262 264 265 264 263 262 263 266 265 266 268 270 269 268 267 267 270 271 272 273 272 272 273 274 277 279 280 278 278 277 277
252 250 249 250 250 251 253 257 258 259 259 260 262 262 264 266 266 266 265 264 265 266 268 270 270 267 266 267 269 270 272 273 273 273 271 273 276 278 280 280 278 277 277 277
254 252 254 255 254 253 255 258 259 259 258 259 262 264 265 265 266 267 267 266 266 268 271 273 273 271 268 267 268 270 273 275 275 274 271 273 276 278 280 281 280 278 277 276
259 256 256 256 256 255 257 259 259 261 260 258 261 264 267 268 268 269 270 268 270 274 275 277 277 277 272 270 270 271 272 274 274 273 271 272 274 276 276 276 278 278 278 276
267 262 259 259 260 258 257 257 258 260 261 260 259 262 267 271 273 274 274 274 274 276 279 280 280 280 278 275 273 274 276 275 273 272 272 273 274 275 276 277 278 278 278 278
Height
5782 5785 5787 5789 5792 5795 5796 5798 5801 5804 5806 5809 5810 5812 5814 5816 5817 5819 5819 5820 5820 5820 5820 5820 5820 5820 5820 5820 5820 5819 5818 5817 5817 5816 5815 5816 5816 5816 5816 5816 5816 5815 5815 5815
5775 5778 5781 5783 5786 5788 5790 5792 5794 5797 5800 5803 5804 5806 5808 5810 5812 5813 5814 5815 5815 5815 5815 5815 5815 5815 5815 5815 5814 5814 5813 5813 5812 5811 5811 5811 5811 5811 5811 5811 5811 5811 5811 5810
5769 5772 5774 5777 5779 5781 5784 5786 5788 5790 5795 5796 5798 5800 5802 5804 5806 5807 5809 5809 5810 5810 5809 5809 5810 5811 5811 5810 5810 5809 5808 5808 5807 5807 5806 5806 5806 5806 5806 5806 5806 5806 5806 5806
5762 5766 5767 5773 5773 5775 5777 5778 5781 5784 5787 5789 5791 5793 5795 5797 5799 5801 5802 5803 5803 5804 5804 5805 5805 5806 5806 5806 5805 5805 5804 5803 5803 5802 5802 5802 5802 5802 5802 5802 5802 5801 5801 5801
5755 5757 5761 5765 5766 5768 5770 5772 5774 5777 5780 5783 5784 5787 5789 5792 5793 5794 5794 5796 5796 5798 5798 5798 5800 5801 5801 5801 5801 5800 5800 5799 5799 5798 5798 5798 5798 5797 5797 5797 5797 5797 5797 5796
5748 5750 5754 5759 5760 5761 5764 5766 5768 5771 5774 5776 5779 5781 5784 5786 5787 5788 5788 5789 5790 5791 5793 5794 5795 5795 5796 5795 5795 5795 5795 5795 5795 5794 5793 5793 5793 5793 5793 5793 5793 5793 5792 5792
5742 5744 5747 5752 5753 5756 5758 5761 5763 5764 5767 5770 5772 5775 5777 5779 5781 5782 5783 5784 5785 5786 5787 5788 5789 5789 5790 5790 5790 5790 5790 5790 5790 5789 5789 5789 5789 5789 5789 5789 5789 5788 5788 5788
5736 5738 5743 5745 5748 5750 5751 5754 5756 5758 5761 5763 5766 5769 5770 5772 5773 5775 5776 5778 5780 5780 5781 5782 5783 5783 5784 5784 5784 5784 5785 5785 5785 5785 5784 5784 5784 5784 5784 5784 5784 5784 5783 5783
5732 5735 5737 5739 5741 5743 5746 5748 5750 5752 5755 5757 5759 5762 5763 5765 5767 5768 5770 5772 5773 5774 5775 5776 5777 5777 5778 5778 5778 5778 5779 5779 5779 5779 5779 5779 5779 5779 5779 5779 5778 5778 5778 5778
5726 5729 5732 5734 5736 5738 5740 5742 5743 5746 5748 5750 5753 5755 5757 5759 5760 5762 5764 5765 5767 5768 5769 5770 5771 5771 5771 5771 5772 5772 5772 5773 5773 5773 5773 5773 5773 5773 5773 5773 5773 5773 5772 5772
5721 5724 5726 5728 5730 5732 5734 5736 5738 5739 5741 5743 5746 5748 5751 5753 5755 5756 5758 5759 5760 5762 5763 5763 5764 5764 5765 5765 5765 5765 5766 5766 5767 5767 5767 5767 5767 5767 5767 5767 5767 5767 5766 5765
5716 5719 5721 5723 5725 5726 5728 5730 5732 5733 5735 5737 5739 5742 5744 5746 5748 5749 5751 5752 5753 5754 5755 5756 5757 5757 5757 5758 5758 5758 5759 5759 5760 5760 5761 5761 5761 5761 5761 5761 5760 5760 5759 5759
5712 5714 5716 5718 5719 5720 5722 5724 5726 5728 5729 5731 5734 5736 5738 5740 5741 5743 5744 5745 5746 5748 5749 5750 5750 5751 5751 5751 5751 5752 5752 5753 5753 5753 5754 5754 5754 5754 5754 5754 5753 5753 5752 5752
5707 5709 5711 5713 5714 5716 5718 5719 5720 5722 5724 5726 5728 5730 5732 5733 5735 5736 5737 5739 5740 5742 5743 5744 5743 5744 5744 5744 5745 5745 5745 5745 5746 5746 5747 5747 5747 5747 5747 5747 5747 5746 5746 5745
5702 5704 5706 5707 5709 5711 5712 5714 5716 5717 5719 5721 5723 5724 5726 5727 5729 5730 5731 5733 5734 5736 5736 5737 5737 5737 5738 5737 5737 5738 5738 5738 5738 5739 5739 5739 5739 5739 5739 5739 5739 5739 5738 5738
5697 5699 5701 5703 5704 5706 5708 5710 5712 5713 5714 5715 5717 5719 5720 5722 5723 5724 5726 5727 5728 5729 5729 5730 5730 5731 5731 5731 5730 5730 5731 5731 5731 5731 5731 5731 5731 5731 5731 5731 5731 5731 5731 5730
5693 5694 5696 5698 5700 5702 5704 5706 5707 5708 5709 5710 5712 5714 5715 5716 5717 5719 5720 5721 5722 5723 5723 5724 5724 5724 5724 5724 5724 5724 5724 5724 5724 5723 5723 5723 5723 5723 5722 5723 5723 5723 5722 5722
5688 5690 5692 5693 5695 5697 5699 5701 5702 5703 5704 5705 5706 5708 5709 5710 5712 5713 5714 5715 5715 5716 5717 5717 5717 5717 5717 5717 5717 5717 5717 5717 5716 5715 5715 5715 5715 5714 5714 5714 5714 5714 5713 5712
5684 5686 5688 5689 5691 5693 5694 5696 5697 5698 5699 5700 5701 5702 5704 5705 5706 5707 5707 5708 5709 5709 5710 5710 5711 5710 5710 5710 5710 5710 5709 5709 5708 5708 5707 5707 5707 5706 5706 5706 5705 5705 5705 5704
5681 5682 5684 5685 5687 5688 5689 5690 5692 5693 5694 5695 5696 5697 5698 5699 5700 5700 5701 5702 5702 5703 5703 5704 5704 5704 5703 5703 5703 5702 5702 5702 5701 5701 5700 5700 5700 5699 5699 5698 5697 5697 5696 5696
5678 5679 5680 5681 5682 5684 5685 5686 5687 5688 5689 5690 5691 5691 5692 5693 5693 5694 5694 5695 5696 5696 5696 5697 5697 5697 5696 5696 5696 5695 5695 5695 5695 5694 5694 5693 5692 5692 5691 5691 5690 5689 5688 5688
5674 5675 5676 5677 5678 5679 5680 5681 5682 5683 5684 5685 5685 5686 5687 5687 5687 5687 5687 5688 5688 5689 5689 5689 5689 5689 5689 5689 5688 5688 5688 5688 5688 5687 5687 5686 5686 5685 5684 5683 5683 5682 5680 5679
5670 5671 5671 5672 5673 5675 5676 5677 5678 5679 5679 5680 5680 5680 5680 5681 5681 5681 5681 5681 5681 5682 5682 5682 5682 5682 5682 5681 5681 5681 5681 5680 5680 5680 5680 5679 5679 5678 5677 5676 5675 5674 5673 5671
5665 5666 5667 5667 5669 5670 5671 5672 5672 5673 5674 5674 5674 5674 5674 5674 5674 5674 5675 5675 5675 5675 5675 5675 5674 5674 5674 5674 5674 5674 5674 5673 5673 5673 5672 5672 5671 5670 5669 5669 5667 5666 5665 5664
5660 5661 5662 5663 5664 5665 5666 5666 5667 5667 5668 5668 5668 5668 5668 5668 5669 5669 5669 5669 5669 5669 5668 5668 5667 5667 5667 5666 5667 5666 5666 5666 5665 5665 5665 5664 5663 5663 5662 5661 5660 5658 5657 5656
5656 5657 5657 5658 5659 5659 5660 5661 5661 5662 5662 5663 5663 5663 5663 5663 5663 5663 5663 5663 5663 5663 5662 5662 5661 5660 5659 5659 5659 5659 5659 5658 5657 5657 5657 5656 5656 5655 5654 5653 5652 5650 5649 5647
5652 5652 5652 5653 5653 5654 5654 5655 5656 5656 5656 5657 5657 5657 5657 5657 5657 5657 5657 5657 5657 5657 5656 5656 5655 5654 5653 5652 5652 5652 5651 5650 5650 5649 5649 5648 5648 5647 5646 5645 5643 5642 5640 5639